Zurück zum Katalog

SL-14 DEB

AktivPO
NORAD 26013·DEBRIS·🇷🇺 Russia

Gestartet Sep 28, 1991 von Plesetsk Cosmodrome

Loading…

Nächste Überflüge (nächste 24 Stunden)

TLE

AktuellSource: Space-Track

Epoche: Sep 14, 2026, 04:05 UTC

1 26013U 91068Y   26257.17081565  .00000052  00000-0  25298-3 0  9997
2 26013  82.7144 137.3683 0020444 153.5702   3.9405 12.55613154233303

Verfolge SL-14 DEB in Echtzeit mit AllMySat

Download on the App Store